Location: Arleux
(50.3632°N, 2.8721°E)
Time: 07:29:38
(UTC+00:00)

Cosmos 371 Rocket - Pass Details

Date: 15 December 2019
Orbit: 684 x 699 km, 74.0° (Epoch: 26 January)

Event Time Altitude Azimuth Distance (km) Brightness Sun altitude
Rises 06:09:47 0° 225° (SW) 3,056 6.4 -13.7°
Reaches altitude 10° 06:12:13 10° 234° (SW) 2,147 5.5 -13.3°
Maximum altitude 06:16:45 39° 303° (WNW) 1,045 3.7 -12.7°
Drops below altitude 10° 06:21:20 10° 12° (NNE) 2,169 5.8 -12.0°
Sets 06:23:49 0° 21° (NNE) 3,093 6.6 -11.6°
